KD8BMB Weather Reports


time (UTC)temp
C
wind
direction
speed
KPH
gust
KPH
rain 1hr
cm
rain 24hr
cm
rain mn
cm
humidity
%
barometer
mb
20260906122852 15 284 0.0 0.0 0.00 0.00 0.00 99 1019.7
20260906122347 14 281 0.0 0.0 0.00 0.00 0.00 99 1019.7
20260906121844 14 278 0.0 0.0 0.00 0.00 0.00 99 1019.7
20260906121340 13 306 1.6 1.6 0.00 0.00 0.00 99 1019.7
20260906120836 13 309 1.6 3.2 0.00 0.00 0.00 99 1019.6
20260906120331 13 328 0.0 1.6 0.00 0.00 0.00 99 1019.5
20260906115827 13 349 0.0 0.0 0.00 0.00 0.00 99 1019.4
20260906115323 13 319 0.0 0.0 0.00 0.00 0.00 99 1019.5
20260906114822 13 310 0.0 0.0 0.00 0.00 0.00 99 1019.4
20260906114317 13 291 0.0 0.0 0.00 0.00 0.00 99 1019.1
20260906113812 13 302 0.0 0.0 0.00 0.00 0.00 99 1019.3
20260906113312 13 321 0.0 0.0 0.00 0.00 0.00 99 1019.1
20260906112807 12 311 0.0 0.0 0.00 0.00 0.00 99 1019.0
20260906112306 12 305 0.0 0.0 0.00 0.00 0.00 99 1019.0
20260906111803 12 303 0.0 0.0 0.00 0.00 0.00 99 1018.8
20260906111301 12 303 0.0 0.0 0.00 0.00 0.00 99 1018.8
20260906110757 12 304 0.0 0.0 0.00 0.00 0.00 99 1018.7
20260906110253 12 303 0.0 0.0 0.00 0.00 0.00 99 1018.7
20260906105751 12 315 0.0 0.0 0.00 0.00 0.00 99 1018.8
20260906105242 12 310 0.0 0.0 0.00 0.00 0.00 99 1018.9
20260906104737 12 300 0.0 0.0 0.00 0.00 0.00 99 1018.6
20260906104236 12 307 0.0 0.0 0.00 0.00 0.00 99 1018.5
20260906103734 12 310 0.0 0.0 0.00 0.00 0.00 99 1018.7
20260906103228 12 310 0.0 0.0 0.00 0.00 0.00 99 1018.6
20260906102724 12 302 0.0 0.0 0.00 0.00 0.00 99 1018.4
20260906102223 12 303 0.0 0.0 0.00 0.00 0.00 99 1018.5
20260906101718 12 303 0.0 0.0 0.00 0.00 0.00 99 1018.6
20260906101213 12 301 0.0 0.0 0.00 0.00 0.00 99 1018.6
20260906100709 12 305 0.0 0.0 0.00 0.00 0.00 99 1018.4
20260906100209 12 299 0.0 0.0 0.00 0.00 0.00 99 1018.6
20260906095703 12 316 0.0 0.0 0.00 0.00 0.00 99 1018.4
20260906095159 12 315 0.0 0.0 0.00 0.00 0.00 99 1018.4
20260906094657 12 304 0.0 0.0 0.00 0.00 0.00 99 1018.2
20260906094153 12 300 0.0 0.0 0.00 0.00 0.00 99 1018.5
20260906093649 12 301 0.0 0.0 0.00 0.00 0.00 99 1018.5
20260906093144 12 307 0.0 0.0 0.00 0.00 0.00 99 1018.4
20260906092639 12 305 0.0 0.0 0.00 0.00 0.00 99 1018.2
20260906092139 12 301 0.0 0.0 0.00 0.00 0.00 99 1018.2
20260906091635 12 310 0.0 0.0 0.00 0.00 0.00 99 1018.3
20260906091132 12 315 0.0 0.0 0.00 0.00 0.00 99 1018.2
20260906090627 12 316 0.0 0.0 0.00 0.00 0.00 99 1018.3
20260906090127 12 313 0.0 0.0 0.00 0.00 0.00 99 1018.2
20260906085626 12 310 0.0 0.0 0.00 0.00 0.00 99 1018.4
20260906085120 12 310 0.0 0.0 0.00 0.00 0.00 99 1018.3
20260906084615 12 305 0.0 0.0 0.00 0.00 0.00 99 1018.3
20260906084114 12 306 0.0 0.0 0.00 0.00 0.00 99 1018.4
20260906083610 12 305 0.0 0.0 0.00 0.00 0.00 99 1018.2
20260906083109 12 302 0.0 0.0 0.00 0.00 0.00 99 1018.0
20260906082605 12 306 0.0 0.0 0.00 0.00 0.00 99 1017.9
20260906082100 12 306 0.0 0.0 0.00 0.00 0.00 99 1017.9
20260906081556 12 306 0.0 0.0 0.00 0.00 0.00 99 1018.1
20260906081051 12 305 0.0 0.0 0.00 0.00 0.00 99 1018.1
20260906080548 12 295 0.0 0.0 0.00 0.00 0.00 99 1017.8
20260906080043 12 291 0.0 0.0 0.00 0.00 0.00 99 1017.9
20260906075537 12 290 0.0 0.0 0.00 0.00 0.00 99 1018.2
20260906075032 12 302 0.0 0.0 0.00 0.00 0.00 99 1018.1
20260906074527 12 302 0.0 0.0 0.00 0.00 0.00 99 1017.9
20260906074025 12 300 0.0 0.0 0.00 0.00 0.00 99 1017.9
20260906073521 12 311 0.0 0.0 0.00 0.00 0.00 99 1018.1
20260906073017 12 300 0.0 0.0 0.00 0.00 0.00 99 1018.0
20260906072511 12 300 0.0 0.0 0.00 0.00 0.00 99 1018.0
20260906072008 12 296 0.0 0.0 0.00 0.00 0.00 99 1017.8
20260906071504 12 294 0.0 0.0 0.00 0.00 0.00 99 1017.8
20260906070959 12 302 0.0 0.0 0.00 0.00 0.00 99 1017.7
20260906070454 12 294 0.0 0.0 0.00 0.00 0.00 99 1017.7
20260906065950 12 294 0.0 0.0 0.00 0.00 0.00 99 1017.8
20260906065444 12 302 0.0 0.0 0.00 0.00 0.00 99 1018.0
20260906064939 12 311 0.0 0.0 0.00 0.00 0.00 99 1017.8
20260906064435 12 303 0.0 0.0 0.00 0.00 0.00 99 1017.9
20260906063930 12 302 0.0 0.0 0.00 0.00 0.00 99 1017.9
20260906063426 12 302 0.0 0.0 0.00 0.00 0.00 99 1017.6
20260906062921 12 300 0.0 0.0 0.00 0.00 0.00 99 1017.7
20260906062421 12 294 0.0 0.0 0.00 0.00 0.00 99 1017.6
20260906061916 12 298 0.0 0.0 0.00 0.00 0.00 99 1018.0
20260906061412 13 296 0.0 0.0 0.00 0.00 0.00 99 1017.7
20260906060906 13 289 0.0 0.0 0.00 0.00 0.00 99 1017.7
20260906060404 13 297 0.0 0.0 0.00 0.00 0.00 99 1017.7
20260906055900 13 285 0.0 0.0 0.00 0.00 0.00 99 1017.6
20260906055355 13 290 0.0 0.0 0.00 0.00 0.00 99 1017.7
20260906054850 13 289 0.0 0.0 0.00 0.00 0.00 99 1017.4
20260906054345 13 267 0.0 0.0 0.00 0.00 0.00 99 1017.2
20260906053841 13 280 0.0 0.0 0.00 0.00 0.00 99 1017.2
20260906053337 13 316 0.0 0.0 0.00 0.00 0.00 99 1017.4
20260906052832 13 327 0.0 0.0 0.00 0.00 0.00 99 1017.4
20260906052329 13 346 0.0 0.0 0.00 0.00 0.00 99 1017.5
20260906051825 13 338 0.0 0.0 0.00 0.00 0.00 99 1017.5
20260906051325 12 304 0.0 0.0 0.00 0.00 0.00 99 1017.5
20260906050821 13 303 0.0 0.0 0.00 0.00 0.00 99 1017.5
20260906050316 13 303 0.0 0.0 0.00 0.00 0.00 99 1017.8
20260906045814 13 301 0.0 0.0 0.00 0.00 0.00 99 1017.8
20260906045309 13 301 0.0 0.0 0.00 0.00 0.00 99 1017.8
20260906044805 13 303 0.0 0.0 0.00 0.00 0.00 99 1017.6
20260906044300 13 296 0.0 0.0 0.00 0.00 0.00 99 1017.8
20260906043755 13 297 0.0 0.0 0.00 0.00 0.00 99 1017.5
20260906043252 13 292 0.0 0.0 0.00 0.00 0.00 99 1017.5
20260906042751 13 314 0.0 0.0 0.00 0.00 0.00 99 1017.5
20260906042250 13 314 0.0 0.0 0.00 0.00 0.00 99 1017.4
20260906041746 13 317 0.0 0.0 0.00 0.00 0.00 99 1017.1
20260906041241 13 317 0.0 0.0 0.00 0.00 0.00 99 1017.4
20260906040736 13 317 0.0 0.0 0.00 0.00 0.00 99 1017.2
20260906040231 13 334 0.0 0.0 0.00 0.00 0.00 99 1017.2
20260906035726 13 303 0.0 0.0 0.00 0.00 0.00 99 1017.2
20260906035217 13 298 0.0 0.0 0.00 0.00 0.00 99 1017.2
20260906034716 13 312 0.0 0.0 0.00 0.00 0.00 99 1017.2
20260906034211 14 312 0.0 0.0 0.00 0.00 0.00 98 1017.4
20260906033707 14 325 0.0 0.0 0.00 0.00 0.00 98 1017.4
20260906033207 14 325 0.0 0.0 0.00 0.00 0.00 97 1016.9
20260906032704 14 338 0.0 0.0 0.00 0.00 0.00 97 1017.1
20260906032158 15 292 0.0 0.0 0.00 0.00 0.00 96 1017.0
20260906031653 15 295 0.0 0.0 0.00 0.00 0.00 95 1017.1
20260906031149 15 284 0.0 0.0 0.00 0.00 0.00 94 1017.1
20260906030648 15 278 0.0 0.0 0.00 0.00 0.00 93 1017.0
20260906030144 15 304 0.0 0.0 0.00 0.00 0.00 92 1016.7
20260906025643 15 297 0.0 0.0 0.00 0.00 0.00 92 1017.0
20260906025142 15 282 0.0 0.0 0.00 0.00 0.00 91 1016.8
20260906024636 16 300 0.0 0.0 0.00 0.00 0.00 90 1016.9
20260906024131 16 326 0.0 0.0 0.00 0.00 0.00 89 1016.9
20260906023627 16 303 0.0 0.0 0.00 0.00 0.00 89 1016.9
20260906023127 16 316 0.0 0.0 0.00 0.00 0.00 89 1016.8
20260906022622 16 331 0.0 0.0 0.00 0.00 0.00 88 1016.8
20260906022118 16 329 0.0 0.0 0.00 0.00 0.00 88 1016.8
20260906021613 16 345 0.0 0.0 0.00 0.00 0.00 87 1017.0
20260906021112 17 314 0.0 0.0 0.00 0.00 0.00 86 1016.9
20260906020612 17 333 0.0 0.0 0.00 0.00 0.00 87 1016.9
20260906020107 17 14 0.0 0.0 0.00 0.00 0.00 87 1016.6
20260906015605 17 312 0.0 0.0 0.00 0.00 0.00 86 1016.8
20260906015059 17 305 0.0 0.0 0.00 0.00 0.00 86 1016.6
20260906014554 17 344 0.0 0.0 0.00 0.00 0.00 85 1016.8
20260906014051 17 249 0.0 0.0 0.00 0.00 0.00 85 1016.7
20260906013545 17 327 0.0 0.0 0.00 0.00 0.00 84 1016.5
20260906013041 17 322 0.0 0.0 0.00 0.00 0.00 84 1016.6
20260906012536 17 322 0.0 1.6 0.00 0.00 0.00 84 1016.4
20260906012035 17 342 0.0 0.0 0.00 0.00 0.00 83 1016.4
20260906011532 18 299 0.0 0.0 0.00 0.00 0.00 82 1016.4
20260906011031 18 307 0.0 0.0 0.00 0.00 0.00 80 1016.1
20260906010527 18 348 0.0 0.0 0.00 0.00 0.00 79 1016.2
20260906010023 19 336 0.0 0.0 0.00 0.00 0.00 79 1016.1
20260906005522 19 353 0.0 0.0 0.00 0.00 0.00 78 1016.0
20260906005020 19 333 0.0 0.0 0.00 0.00 0.00 77 1015.9
20260906004515 20 355 0.0 0.0 0.00 0.00 0.00 76 1016.1
20260906004010 20 48 0.0 0.0 0.00 0.00 0.00 76 1016.0
20260906003505 20 25 0.0 0.0 0.00 0.00 0.00 76 1015.9
20260906003000 20 94 0.0 1.6 0.00 0.00 0.00 76 1016.0
20260906002455 20 22 0.0 0.0 0.00 0.00 0.00 76 1015.9
20260906001950 20 50 0.0 0.0 0.00 0.00 0.00 75 1015.7
20260906001446 21 83 0.0 1.6 0.00 0.00 0.00 75 1015.9
20260906000940 21 50 0.0 0.0 0.00 0.00 0.00 75 1015.8
20260906000436 21 54 0.0 0.0 0.00 0.00 0.00 74 1015.8
20260905235931 21 31 0.0 0.0 0.00 0.00 0.00 74 1015.8
20260905235431 21 72 0.0 0.0 0.00 0.00 0.00 74 1015.6
20260905234926 21 66 1.6 3.2 0.00 0.00 0.00 73 1015.8
20260905234421 22 95 0.0 0.0 0.00 0.00 0.00 74 1015.7
20260905233915 22 333 0.0 0.0 0.00 0.00 0.00 73 1015.6
20260905233411 22 97 0.0 1.6 0.00 0.00 0.00 72 1015.5
20260905232909 22 29 0.0 0.0 0.00 0.00 0.00 72 1015.4
20260905232406 23 29 0.0 0.0 0.00 0.00 0.00 72 1015.7
20260905231900 23 0 0.0 0.0 0.00 0.00 0.00 71 1015.4
20260905231356 23 66 0.0 0.0 0.00 0.00 0.00 71 1015.3
20260905230853 23 59 0.0 0.0 0.00 0.00 0.00 71 1015.7
20260905230350 23 71 0.0 1.6 0.00 0.00 0.00 71 1015.6
20260905225844 23 13 0.0 0.0 0.00 0.00 0.00 71 1015.4
20260905225339 23 41 0.0 0.0 0.00 0.00 0.00 72 1015.6
20260905224834 23 58 0.0 0.0 0.00 0.00 0.00 71 1015.4
20260905224330 23 57 0.0 1.6 0.00 0.00 0.00 70 1015.1
20260905223824 24 48 0.0 0.0 0.00 0.00 0.00 70 1015.0
20260905223322 25 349 1.6 1.6 0.00 0.00 0.00 69 1015.0
20260905222817 25 8 0.0 0.0 0.00 0.00 0.00 69 1015.1
20260905222316 25 72 1.6 4.8 0.00 0.00 0.00 68 1015.4
20260905221812 24 314 0.0 0.0 0.00 0.00 0.00 71 1015.2
20260905221309 24 58 0.0 0.0 0.00 0.00 0.00 70 1015.1
20260905220804 25 67 0.0 1.6 0.00 0.00 0.00 68 1015.1
20260905220300 25 78 4.8 8.0 0.00 0.00 0.00 67 1014.8
20260905215759 25 114 4.8 8.0 0.00 0.00 0.00 65 1014.8
20260905215255 25 79 0.0 1.6 0.00 0.00 0.00 66 1014.8
20260905214751 25 95 0.0 1.6 0.00 0.00 0.00 66 1014.8
20260905214246 25 36 3.2 4.8 0.00 0.00 0.00 65 1014.4
20260905213741 25 331 0.0 1.6 0.00 0.00 0.00 68 1014.5
20260905213238 25 91 1.6 1.6 0.00 0.00 0.00 67 1014.7
20260905212733 25 70 0.0 0.0 0.00 0.00 0.00 68 1014.8
20260905212232 25 77 0.0 0.0 0.00 0.00 0.00 69 1014.9
20260905211731 25 62 0.0 0.0 0.00 0.00 0.00 68 1015.1
20260905211227 25 81 0.0 0.0 0.00 0.00 0.00 68 1014.8
20260905210724 25 69 1.6 3.2 0.00 0.00 0.00 66 1014.8
20260905210223 26 102 0.0 0.0 0.00 0.00 0.00 66 1014.8
20260905205722 25 4 9.7 12.9 0.00 0.00 0.00 65 1014.7
20260905205217 25 58 0.0 0.0 0.00 0.00 0.00 66 1014.7
20260905204717 25 72 0.0 0.0 0.00 0.00 0.00 68 1014.9
20260905204212 24 29 0.0 1.6 0.00 0.00 0.00 69 1014.9
20260905203706 25 88 1.6 3.2 0.00 0.00 0.00 68 1014.7
20260905203202 25 48 3.2 3.2 0.00 0.00 0.00 67 1014.9
20260905202657 26 41 0.0 1.6 0.00 0.00 0.00 65 1015.0
20260905202152 26 342 4.8 4.8 0.00 0.00 0.00 63 1014.9
20260905201648 25 37 0.0 0.0 0.00 0.00 0.00 67 1014.9
20260905201147 25 60 0.0 3.2 0.00 0.00 0.00 66 1014.9
20260905200643 25 87 0.0 1.6 0.00 0.00 0.00 64 1014.9
20260905200138 25 327 1.6 3.2 0.00 0.00 0.00 64 1015.0
20260905195636 25 27 0.0 1.6 0.00 0.00 0.00 66 1015.1
20260905195131 25 71 1.6 3.2 0.00 0.00 0.00 65 1015.0
20260905194626 26 82 0.0 0.0 0.00 0.00 0.00 64 1014.9
20260905194126 26 152 0.0 1.6 0.00 0.00 0.00 64 1014.9
20260905193621 25 80 0.0 0.0 0.00 0.00 0.00 65 1015.1
20260905193116 26 87 0.0 1.6 0.00 0.00 0.00 65 1015.2
20260905192612 25 109 0.0 1.6 0.00 0.00 0.00 67 1015.1
20260905192108 25 65 1.6 3.2 0.00 0.00 0.00 65 1015.5
20260905191606 26 133 11.3 16.1 0.00 0.00 0.00 64 1015.2
20260905191105 26 349 0.0 1.6 0.00 0.00 0.00 65 1015.3
20260905190603 25 78 1.6 1.6 0.00 0.00 0.00 64 1015.4
20260905185602 26 45 1.6 3.2 0.00 0.00 0.00 64 1015.3
20260905185056 26 63 0.0 1.6 0.00 0.00 0.00 64 1015.5
20260905184551 25 7 3.2 3.2 0.00 0.00 0.00 66 1015.5
20260905184049 25 49 0.0 1.6 0.00 0.00 0.00 68 1015.8
20260905183544 25 48 0.0 0.0 0.00 0.00 0.00 65 1015.4
20260905183039 25 65 1.6 1.6 0.00 0.00 0.00 66 1015.2
20260905182538 25 329 4.8 8.0 0.00 0.00 0.00 68 1015.2
20260905182033 25 17 1.6 1.6 0.00 0.00 0.00 67 1015.4
20260905181528 26 33 0.0 1.6 0.00 0.00 0.00 67 1015.5
20260905181027 25 67 0.0 1.6 0.00 0.00 0.00 68 1015.5
20260905180522 25 55 0.0 1.6 0.00 0.00 0.00 67 1015.4
20260905180017 25 65 3.2 9.7 0.00 0.00 0.00 67 1015.3
20260905175516 26 305 3.2 4.8 0.00 0.00 0.00 65 1015.4
20260905175012 25 335 0.0 0.0 0.00 0.00 0.00 66 1015.3
20260905174508 26 86 0.0 0.0 0.00 0.00 0.00 68 1015.4
20260905174003 25 128 1.6 1.6 0.00 0.00 0.00 67 1015.3
20260905173459 26 91 8.0 11.3 0.00 0.00 0.00 67 1015.1
20260905172954 25 131 4.8 9.7 0.00 0.00 0.00 68 1015.2
20260905172452 25 62 1.6 8.0 0.00 0.00 0.00 68 1015.4
20260905171948 24 34 1.6 3.2 0.00 0.00 0.00 71 1015.4
20260905171444 25 178 3.2 4.8 0.00 0.00 0.00 71 1015.6
20260905170941 25 7 4.8 8.0 0.00 0.00 0.00 67 1015.4
20260905170437 26 63 0.0 0.0 0.00 0.00 0.00 67 1015.4
20260905165936 25 311 0.0 0.0 0.00 0.00 0.00 69 1015.3
20260905165431 25 66 0.0 0.0 0.00 0.00 0.00 70 1015.5
20260905164926 25 327 0.0 0.0 0.00 0.00 0.00 70 1015.3
20260905164420 24 83 0.0 0.0 0.00 0.00 0.00 69 1015.6
20260905163915 24 81 0.0 1.6 0.00 0.00 0.00 71 1015.5
20260905163412 24 65 1.6 1.6 0.00 0.00 0.00 72 1015.9
20260905162908 24 21 0.0 0.0 0.00 0.00 0.00 69 1015.6
20260905162403 25 46 0.0 0.0 0.00 0.00 0.00 70 1015.7
20260905161857 25 307 1.6 4.8 0.00 0.00 0.00 70 1015.4
20260905161356 24 330 0.0 1.6 0.00 0.00 0.00 69 1015.7
20260905160854 25 21 1.6 8.0 0.00 0.00 0.00 72 1015.6
20260905160349 25 250 0.0 0.0 0.00 0.00 0.00 72 1015.7
20260905155844 24 30 0.0 0.0 0.00 0.00 0.00 74 1015.4
20260905155343 24 32 1.6 3.2 0.00 0.00 0.00 72 1015.6
20260905154842 23 50 8.0 12.9 0.00 0.00 0.00 73 1015.6
20260905154338 24 64 1.6 4.8 0.00 0.00 0.00 72 1015.7
20260905153833 23 75 0.0 0.0 0.00 0.00 0.00 74 1015.5
20260905153330 23 62 0.0 1.6 0.00 0.00 0.00 75 1015.4
20260905152829 24 47 0.0 0.0 0.00 0.00 0.00 73 1015.6
20260905152328 23 72 1.6 3.2 0.00 0.00 0.00 74 1015.5
20260905151824 23 68 0.0 1.6 0.00 0.00 0.00 75 1015.5
20260905151319 24 61 0.0 0.0 0.00 0.00 0.00 75 1015.4
20260905150814 23 24 0.0 0.0 0.00 0.00 0.00 75 1015.6
20260905150314 23 110 0.0 1.6 0.00 0.00 0.00 75 1015.6
20260905145810 23 44 0.0 0.0 0.00 0.00 0.00 77 1015.5
20260905145306 23 82 1.6 3.2 0.00 0.00 0.00 75 1015.4
20260905144804 22 61 3.2 9.7 0.00 0.00 0.00 76 1015.3
20260905144300 22 66 1.6 4.8 0.00 0.00 0.00 77 1015.5
20260905143758 22 98 3.2 8.0 0.00 0.00 0.00 77 1015.5
20260905143253 22 65 1.6 4.8 0.00 0.00 0.00 77 1015.3
20260905142751 22 65 6.4 11.3 0.00 0.00 0.00 76 1015.2
20260905142246 22 70 1.6 1.6 0.00 0.00 0.00 76 1015.4
20260905141742 22 71 3.2 4.8 0.00 0.00 0.00 78 1015.3
20260905141238 22 70 1.6 4.8 0.00 0.00 0.00 79 1015.2
20260905140733 22 69 1.6 3.2 0.00 0.00 0.00 79 1015.2
20260905140227 21 28 4.8 9.7 0.00 0.00 0.00 81 1015.1
20260905135726 21 95 4.8 9.7 0.00 0.00 0.00 81 1015.2
20260905135223 21 78 8.0 12.9 0.00 0.00 0.00 82 1015.1
20260905134722 21 66 3.2 3.2 0.00 0.00 0.00 85 1015.3
20260905134221 21 53 3.2 3.2 0.00 0.00 0.00 85 1015.2
20260905133716 21 48 1.6 3.2 0.00 0.00 0.00 87 1015.4
20260905133211 20 3 3.2 4.8 0.00 0.00 0.00 90 1015.4
20260905132710 20 86 3.2 3.2 0.00 0.00 0.00 91 1015.3
20260905132206 20 82 0.0 0.0 0.00 0.00 0.00 92 1015.5
20260905131701 20 39 1.6 3.2 0.00 0.00 0.00 93 1015.5
20260905131156 20 79 8.0 11.3 0.00 0.00 0.00 93 1015.3
20260905130650 20 107 4.8 8.0 0.00 0.00 0.00 93 1015.5
20260905130150 20 73 0.0 1.6 0.00 0.00 0.00 94 1015.2
20260905125644 20 81 3.2 4.8 0.00 0.00 0.00 94 1015.3
20260905125140 20 53 0.0 0.0 0.00 0.00 0.00 94 1015.5
20260905124636 20 60 3.2 3.2 0.00 0.00 0.00 94 1015.4
20260905124132 20 76 1.6 1.6 0.00 0.00 0.00 95 1015.1
20260905123627 20 65 1.6 1.6 0.00 0.00 0.00 95 1015.3